Skip Page Navigation
NASA JPL Caltech
NASA Logo - Jet Propulsion Laboratory + View the NASA Portal
+ Center for Near-Earth Object Studies
JPL Home Earth Solar System Stars & Galaxies Technology
JPL Solar System Dynamics
BODIES ORBITS EPHEMERIDES TOOLS PHYSICAL DATA DISCOVERY FAQ SITE MAP
JPL Small-Body Database Browser
Search: [ help ]  
324583 (2006 XZ)
Classification: Main-belt Asteroid          SPK-ID: 2324583
Ephemeris | Orbit Diagram | Orbital Elements | Mission Design | Physical Parameters | Discovery Circumstances ]

[ hide orbit diagram ]

For accurate long-term ephemerides, please instead use our Horizons system.This orbit viewer was implemented using two-body methods, and hence should not be used for determining accurate long-term trajectories (over several years or decades) or planetary encounter circumstances.


[ revert to old Java-based viewer ]

Orbital Elements at Epoch 2459000.5 (2020-May-31.0) TDB
Reference: JPL 18 (heliocentric ecliptic J2000)
 Element Value Uncertainty (1-sigma)   Units 
e .1420472293924756 3.7903e-08  
a 2.425102420212625 2.091e-08 au
q 2.080623340428435 9.3541e-08 au
i 8.286189958389114 5.078e-06 deg
node 76.47148189263265 3.8448e-05 deg
peri 207.52421936323 4.4831e-05 deg
M 337.1956280505248 2.4846e-05 deg
tp 2459087.879422400067
(2020-Aug-26.37942240)
9.5509e-05 TDB
period 1379.410585554325
3.78
1.784e-05
4.884e-08
d
yr
n .2609810333268768 3.3753e-09 deg/d
Q 2.769581499996816 2.388e-08 au
  Orbit Determination Parameters
   # obs. used (total)      289  
   data-arc span      6970 days (19.08 yr)  
   first obs. used      2001-05-18  
   last obs. used      2020-06-17  
   planetary ephem.      DE431  
   SB-pert. ephem.      SB431-N16  
   condition code      0  
   norm. resid. RMS      .57248  
   source      ORB  
   producer      Otto Matic  
   solution date      2020-Jun-24 05:35:10  

Additional Information
 Earth MOID = 1.06806 au 
 Jupiter MOID = 2.36389 au 
 T_jup = 3.483 
[ show covariance matrix ]

Ephemeris | Orbit Diagram | Orbital Elements | Mission Design | Physical Parameters | Discovery Circumstances ]

Physical Parameter Table
Parameter Symbol Value Units Sigma Reference Notes
absolute magnitude H 16.6   n/a MPO434050  

324583 (2006 XZ)          Discovered 2006-Dec-09 by Yeung, W. K. Y. at 7300
Reference: 20120406/Numbers.arcLast Updated: 2012-04-09

Alternate Designations
 2006 XZ = 2001 KC53 
Ephemeris | Orbit Diagram | Orbital Elements | Mission Design | Physical Parameters | Discovery Circumstances ]
ABOUT SSD CREDITS/AWARDS PRIVACY/COPYRIGHT GLOSSARY LINKS
FirstGov 2020-Jul-05 17:11 UT
(server date/time)  
NASA Home Page
Site Manager:   Ryan S. Park
Webmaster  Alan B. Chamberlin